Time,TemperatureF,DewpointF,PressureIn,WindDirection,WindDirectionDegrees,WindSpeedMPH,WindSpeedGustMPH,Humidity,HourlyPrecipIn,Conditions,Clouds,dailyrainin,SoftwareType,DateUTC
2013-01-27 00:04:00,48.4,48.2,30.14,East,86,1.0,7.0,99,0.00,,,0.00,meteohub,2013-01-27 06:04:00,
2013-01-27 00:09:00,48.4,48.2,30.14,ESE,110,1.0,7.0,99,0.00,,,0.00,meteohub,2013-01-27 06:09:00,
2013-01-27 00:14:00,48.4,48.2,30.14,East,101,1.0,3.0,99,0.00,,,0.00,meteohub,2013-01-27 06:14:00,
2013-01-27 00:19:00,48.4,48.2,30.13,East,82,1.0,3.0,99,0.00,,,0.00,meteohub,2013-01-27 06:19:00,
2013-01-27 00:24:00,48.4,48.2,30.13,East,96,0.0,3.0,99,0.00,,,0.00,meteohub,2013-01-27 06:24:00,
2013-01-27 00:29:00,48.6,48.4,30.13,ENE,71,1.0,3.0,99,0.00,,,0.00,meteohub,2013-01-27 06:29:00,
2013-01-27 00:34:00,48.6,48.4,30.13,East,96,2.0,3.0,99,0.00,,,0.00,meteohub,2013-01-27 06:34:00,
2013-01-27 00:39:00,48.6,48.4,30.13,East,95,2.0,3.0,99,0.00,,,0.00,meteohub,2013-01-27 06:39:00,
2013-01-27 00:44:00,48.7,48.6,30.13,ESE,111,1.0,6.0,99,0.00,,,0.00,meteohub,2013-01-27 06:44:00,
2013-01-27 00:49:00,48.7,48.6,30.13,SE,130,3.0,6.0,99,0.00,,,0.00,meteohub,2013-01-27 06:49:00,
2013-01-27 00:54:00,48.9,48.7,30.13,ESE,120,3.0,6.0,99,0.00,,,0.00,meteohub,2013-01-27 06:54:00,
2013-01-27 00:59:00,48.9,48.7,30.13,ESE,103,2.0,7.0,99,0.00,,,0.00,meteohub,2013-01-27 06:59:00,
2013-01-27 01:04:00,48.9,48.7,30.12,SE,132,2.0,7.0,99,0.00,,,0.00,meteohub,2013-01-27 07:04:00,
2013-01-27 01:13:00,49.1,48.9,30.12,ESE,123,2.0,7.0,99,0.00,,,0.00,meteohub,2013-01-27 07:13:00,
2013-01-27 01:18:00,49.1,48.9,30.12,SE,126,1.0,7.0,99,0.00,,,0.00,meteohub,2013-01-27 07:18:00,
2013-01-27 01:23:00,49.3,49.1,30.12,ESE,110,2.0,7.0,99,0.00,,,0.00,meteohub,2013-01-27 07:23:00,
2013-01-27 01:28:00,49.3,49.1,30.12,SE,124,1.0,7.0,99,0.00,,,0.00,meteohub,2013-01-27 07:28:00,
2013-01-27 01:33:00,49.5,49.3,30.12,ESE,119,2.0,5.0,99,0.00,,,0.00,meteohub,2013-01-27 07:33:00,
2013-01-27 01:38:00,49.5,49.3,30.13,SE,140,0.0,5.0,99,0.00,,,0.00,meteohub,2013-01-27 07:38:00,
2013-01-27 01:43:00,49.5,49.3,30.13,SE,136,1.0,5.0,99,0.00,,,0.00,meteohub,2013-01-27 07:43:00,
2013-01-27 01:48:00,49.6,49.5,30.13,SE,127,2.0,5.0,99,0.00,,,0.00,meteohub,2013-01-27 07:48:00,
2013-01-27 01:53:00,49.6,49.5,30.13,SE,131,1.0,5.0,99,0.00,,,0.00,meteohub,2013-01-27 07:53:00,
2013-01-27 01:58:00,49.6,49.5,30.13,SE,131,0.0,4.0,99,0.00,,,0.00,meteohub,2013-01-27 07:58:00,
2013-01-27 02:03:00,49.6,49.5,30.13,SE,133,1.0,4.0,99,0.00,,,0.00,meteohub,2013-01-27 08:03:00,
2013-01-27 02:09:00,49.8,49.5,30.13,SE,133,1.0,3.0,99,0.00,,,0.00,meteohub,2013-01-27 08:09:00,
2013-01-27 02:14:00,49.8,49.5,30.13,SE,133,0.0,3.0,99,0.00,,,0.00,meteohub,2013-01-27 08:14:00,
2013-01-27 02:19:00,50.0,49.6,30.13,ESE,117,1.0,3.0,99,0.00,,,0.00,meteohub,2013-01-27 08:19:00,
2013-01-27 02:24:00,50.2,49.8,30.12,East,101,1.0,3.0,99,0.00,,,0.00,meteohub,2013-01-27 08:24:00,
2013-01-27 02:29:00,50.2,49.8,30.12,East,101,1.0,3.0,99,0.00,,,0.00,meteohub,2013-01-27 08:29:00,
2013-01-27 02:34:00,50.4,50.0,30.12,East,101,0.0,3.0,99,0.00,,,0.00,meteohub,2013-01-27 08:34:00,
2013-01-27 02:39:00,50.4,50.0,30.12,East,101,1.0,2.0,99,0.00,,,0.00,meteohub,2013-01-27 08:39:00,
2013-01-27 02:44:00,50.5,50.2,30.12,ENE,71,2.0,2.0,99,0.00,,,0.00,meteohub,2013-01-27 08:44:00,
2013-01-27 02:49:00,50.5,50.2,30.12,SSE,152,2.0,3.0,99,0.00,,,0.00,meteohub,2013-01-27 08:49:00,
2013-01-27 02:54:00,50.5,50.2,30.12,ESE,103,1.0,4.0,99,0.00,,,0.00,meteohub,2013-01-27 08:54:00,
2013-01-27 02:59:00,50.7,50.4,30.12,ESE,106,1.0,4.0,99,0.00,,,0.00,meteohub,2013-01-27 08:59:00,
2013-01-27 03:04:00,50.9,50.5,30.12,SE,136,3.0,5.0,99,0.00,,,0.00,meteohub,2013-01-27 09:04:00,
2013-01-27 03:09:00,51.1,50.7,30.12,SE,134,2.0,5.0,99,0.00,,,0.00,meteohub,2013-01-27 09:09:00,
2013-01-27 03:14:00,51.3,50.9,30.12,East,100,2.0,5.0,99,0.00,,,0.00,meteohub,2013-01-27 09:14:00,
2013-01-27 03:19:00,51.4,51.1,30.12,SE,129,2.0,5.0,99,0.00,,,0.00,meteohub,2013-01-27 09:19:00,
2013-01-27 03:24:00,51.4,51.1,30.12,ESE,118,0.0,7.0,99,0.00,,,0.00,meteohub,2013-01-27 09:24:00,
2013-01-27 03:29:00,51.4,51.1,30.12,ESE,118,0.0,7.0,99,0.00,,,0.00,meteohub,2013-01-27 09:29:00,
2013-01-27 03:34:00,51.6,51.3,30.12,ESE,118,0.0,7.0,99,0.00,,,0.00,meteohub,2013-01-27 09:34:00,
2013-01-27 03:39:00,51.6,51.3,30.12,ESE,118,2.0,3.0,99,0.00,,,0.00,meteohub,2013-01-27 09:39:00,
2013-01-27 03:44:00,51.6,51.3,30.12,ESE,118,1.0,2.0,99,0.00,,,0.00,meteohub,2013-01-27 09:44:00,
2013-01-27 03:49:00,51.6,51.3,30.11,SE,130,2.0,3.0,99,0.00,,,0.00,meteohub,2013-01-27 09:49:00,
2013-01-27 03:54:00,51.8,51.4,30.10,ESE,123,2.0,3.0,99,0.00,,,0.00,meteohub,2013-01-27 09:54:00,
2013-01-27 03:59:00,52.0,51.6,30.11,ESE,116,4.0,5.0,99,0.00,,,0.00,meteohub,2013-01-27 09:59:00,
2013-01-27 04:04:00,52.0,51.6,30.10,ESE,109,2.0,7.0,99,0.00,,,0.00,meteohub,2013-01-27 10:04:00,
2013-01-27 04:09:00,52.0,51.6,30.10,East,100,2.0,7.0,99,0.00,,,0.00,meteohub,2013-01-27 10:09:00,
2013-01-27 04:14:00,52.0,51.6,30.10,ESE,107,1.0,7.0,99,0.00,,,0.00,meteohub,2013-01-27 10:14:00,
2013-01-27 04:19:00,52.2,51.8,30.10,SE,135,1.0,7.0,99,0.00,,,0.00,meteohub,2013-01-27 10:19:00,
2013-01-27 04:24:00,52.2,51.8,30.10,SE,133,1.0,5.0,99,0.00,,,0.00,meteohub,2013-01-27 10:24:00,
2013-01-27 04:29:00,52.3,52.0,30.10,East,87,0.0,5.0,99,0.00,,,0.00,meteohub,2013-01-27 10:29:00,
2013-01-27 04:34:00,52.3,52.0,30.10,ESE,120,2.0,5.0,99,0.00,,,0.00,meteohub,2013-01-27 10:34:00,
2013-01-27 04:39:00,52.3,52.0,30.10,ESE,113,1.0,5.0,99,0.00,,,0.00,meteohub,2013-01-27 10:39:00,
2013-01-27 04:44:00,52.5,52.2,30.10,ESE,111,1.0,5.0,99,0.00,,,0.00,meteohub,2013-01-27 10:44:00,
2013-01-27 04:49:00,52.7,52.3,30.10,SE,136,3.0,5.0,99,0.00,,,0.00,meteohub,2013-01-27 10:49:00,
2013-01-27 04:54:00,52.9,52.5,30.09,ESE,105,1.0,4.0,99,0.00,,,0.00,meteohub,2013-01-27 10:54:00,
2013-01-27 04:59:00,52.9,52.5,30.10,SSE,148,1.0,5.0,99,0.00,,,0.00,meteohub,2013-01-27 10:59:00,
2013-01-27 05:04:00,52.9,52.5,30.10,ESE,119,1.0,5.0,99,0.00,,,0.00,meteohub,2013-01-27 11:04:00,
2013-01-27 05:10:00,53.1,52.7,30.10,SE,141,1.0,5.0,99,0.00,,,0.00,meteohub,2013-01-27 11:10:00,
2013-01-27 05:15:00,53.1,52.7,30.09,ESE,123,2.0,4.0,99,0.00,,,0.00,meteohub,2013-01-27 11:15:00,
2013-01-27 05:19:00,53.1,52.7,30.09,ESE,102,2.0,4.0,99,0.00,,,0.00,meteohub,2013-01-27 11:19:00,
2013-01-27 05:25:00,53.1,52.7,30.09,ESE,104,0.0,4.0,99,0.00,,,0.00,meteohub,2013-01-27 11:25:00,
2013-01-27 05:30:00,53.2,52.9,30.09,ESE,104,0.0,4.0,99,0.00,,,0.00,meteohub,2013-01-27 11:30:00,
2013-01-27 05:35:00,53.2,52.9,30.09,ESE,104,0.0,3.0,99,0.00,,,0.00,meteohub,2013-01-27 11:35:00,
2013-01-27 05:40:00,53.2,52.9,30.09,ESE,113,2.0,4.0,99,0.00,,,0.00,meteohub,2013-01-27 11:40:00,
2013-01-27 05:45:00,53.2,52.9,30.09,SE,124,1.0,4.0,99,0.00,,,0.00,meteohub,2013-01-27 11:45:00,
2013-01-27 05:50:00,53.4,53.1,30.10,ESE,121,2.0,4.0,99,0.00,,,0.00,meteohub,2013-01-27 11:50:00,
2013-01-27 05:55:00,53.6,53.2,30.10,ESE,109,2.0,4.0,99,0.00,,,0.00,meteohub,2013-01-27 11:55:00,
2013-01-27 06:00:00,53.8,53.4,30.10,East,99,1.0,4.0,99,0.00,,,0.00,meteohub,2013-01-27 12:00:00,
2013-01-27 06:05:00,53.8,53.4,30.10,SE,133,0.0,4.0,99,0.00,,,0.00,meteohub,2013-01-27 12:05:00,
2013-01-27 06:10:00,54.0,53.6,30.10,East,99,2.0,4.0,99,0.00,,,0.00,meteohub,2013-01-27 12:10:00,
2013-01-27 06:15:00,54.1,53.8,30.11,ESE,123,1.0,3.0,99,0.00,,,0.00,meteohub,2013-01-27 12:15:00,
2013-01-27 06:20:00,54.1,53.8,30.11,ESE,120,1.0,3.0,99,0.00,,,0.00,meteohub,2013-01-27 12:20:00,
2013-01-27 06:25:00,54.1,53.8,30.11,SE,146,2.0,3.0,99,0.00,,,0.00,meteohub,2013-01-27 12:25:00,
2013-01-27 06:30:00,54.3,54.0,30.11,SSE,152,2.0,3.0,99,0.00,,,0.00,meteohub,2013-01-27 12:30:00,
2013-01-27 06:35:00,54.3,54.0,30.12,SE,128,3.0,4.0,99,0.00,,,0.00,meteohub,2013-01-27 12:35:00,
2013-01-27 06:40:00,54.3,54.0,30.12,SE,136,2.0,4.0,99,0.00,,,0.00,meteohub,2013-01-27 12:40:00,
2013-01-27 06:45:00,54.5,54.1,30.12,SE,130,1.0,4.0,99,0.00,,,0.00,meteohub,2013-01-27 12:45:00,
2013-01-27 06:50:00,54.7,54.3,30.12,SE,130,0.0,7.0,99,0.00,,,0.00,meteohub,2013-01-27 12:50:00,
2013-01-27 06:55:00,54.7,54.3,30.12,SE,130,0.0,7.0,99,0.00,,,0.00,meteohub,2013-01-27 12:55:00,
2013-01-27 07:00:00,54.5,54.1,30.12,SE,130,0.0,3.0,99,0.00,,,0.00,meteohub,2013-01-27 13:00:00,
2013-01-27 07:05:00,54.5,54.1,30.13,SE,130,0.0,2.0,99,0.00,,,0.00,meteohub,2013-01-27 13:05:00,
2013-01-27 07:10:00,54.5,54.1,30.12,SE,130,1.0,2.0,99,0.00,,,0.00,meteohub,2013-01-27 13:10:00,
2013-01-27 07:15:00,54.3,54.0,30.13,SE,130,0.0,1.0,99,0.00,,,0.00,meteohub,2013-01-27 13:15:00,
2013-01-27 07:20:00,54.1,53.8,30.12,SE,130,0.0,1.0,99,0.00,,,0.00,meteohub,2013-01-27 13:20:00,
2013-01-27 07:25:00,53.8,53.4,30.13,SE,130,0.0,1.0,99,0.00,,,0.00,meteohub,2013-01-27 13:25:00,
2013-01-27 07:30:00,53.6,53.2,30.12,SE,130,0.0,1.0,99,0.00,,,0.00,meteohub,2013-01-27 13:30:00,
2013-01-27 07:35:00,53.2,52.9,30.13,SE,130,0.0,1.0,99,0.00,,,0.00,meteohub,2013-01-27 13:35:00,
2013-01-27 07:40:00,53.1,52.7,30.13,SE,130,1.0,2.0,99,0.00,,,0.00,meteohub,2013-01-27 13:40:00,
2013-01-27 07:45:00,52.9,52.5,30.13,SE,130,0.0,2.0,99,0.00,,,0.00,meteohub,2013-01-27 13:45:00,
2013-01-27 07:50:00,52.7,52.3,30.13,SE,130,0.0,2.0,99,0.00,,,0.00,meteohub,2013-01-27 13:50:00,
2013-01-27 07:55:00,52.5,52.2,30.13,SE,130,1.0,2.0,99,0.00,,,0.00,meteohub,2013-01-27 13:55:00,
2013-01-27 08:00:00,52.5,52.2,30.13,SE,130,1.0,2.0,99,0.00,,,0.00,meteohub,2013-01-27 14:00:00,
2013-01-27 08:05:00,52.5,52.2,30.13,SE,129,1.0,2.0,99,0.00,,,0.00,meteohub,2013-01-27 14:05:00,
2013-01-27 08:11:00,52.7,52.3,30.13,SE,129,0.0,3.0,99,0.00,,,0.00,meteohub,2013-01-27 14:11:00,
2013-01-27 08:16:00,52.9,52.5,30.13,SE,129,1.0,3.0,99,0.00,,,0.00,meteohub,2013-01-27 14:16:00,
2013-01-27 08:21:00,52.9,52.5,30.13,SE,129,0.0,3.0,99,0.00,,,0.00,meteohub,2013-01-27 14:21:00,
2013-01-27 08:26:00,52.9,52.5,30.13,ENE,78,0.0,3.0,99,0.00,,,0.00,meteohub,2013-01-27 14:26:00,
2013-01-27 08:31:00,52.9,52.5,30.13,ENE,78,1.0,2.0,99,0.00,,,0.00,meteohub,2013-01-27 14:31:00,
2013-01-27 08:36:00,53.1,52.7,30.13,ENE,78,0.0,2.0,99,0.00,,,0.00,meteohub,2013-01-27 14:36:00,
2013-01-27 08:41:00,53.1,52.7,30.13,ENE,78,0.0,2.0,99,0.00,,,0.00,meteohub,2013-01-27 14:41:00,
2013-01-27 08:46:00,53.2,52.9,30.13,ESE,115,0.0,2.0,99,0.00,,,0.00,meteohub,2013-01-27 14:46:00,
2013-01-27 08:51:00,53.4,53.1,30.13,ESE,115,2.0,2.0,99,0.00,,,0.00,meteohub,2013-01-27 14:51:00,
2013-01-27 08:56:00,53.8,53.4,30.12,East,92,1.0,2.0,99,0.00,,,0.00,meteohub,2013-01-27 14:56:00,
2013-01-27 09:01:00,54.1,53.8,30.13,SE,136,3.0,3.0,99,0.00,,,0.00,meteohub,2013-01-27 15:01:00,
2013-01-27 09:06:00,54.7,54.3,30.13,ESE,123,1.0,3.0,99,0.00,,,0.00,meteohub,2013-01-27 15:06:00,
2013-01-27 09:11:00,55.0,55.0,30.13,ESE,117,3.0,3.0,100,0.00,,,0.00,meteohub,2013-01-27 15:11:00,
2013-01-27 09:16:00,55.8,55.4,30.12,ESE,109,1.0,7.0,99,0.00,,,0.00,meteohub,2013-01-27 15:16:00,
2013-01-27 09:21:00,56.1,55.8,30.12,ESE,114,4.0,7.0,99,0.00,,,0.00,meteohub,2013-01-27 15:21:00,
2013-01-27 09:26:00,56.5,56.5,30.13,SE,127,1.0,7.0,100,0.00,,,0.00,meteohub,2013-01-27 15:26:00,
2013-01-27 09:31:00,56.8,56.5,30.13,ESE,105,0.0,7.0,99,0.00,,,0.00,meteohub,2013-01-27 15:31:00,
2013-01-27 09:36:00,57.0,57.0,30.13,SSE,162,5.0,7.0,100,0.00,,,0.00,meteohub,2013-01-27 15:36:00,
2013-01-27 09:41:00,57.4,57.0,30.13,SSE,161,3.0,6.0,99,0.00,,,0.00,meteohub,2013-01-27 15:41:00,
2013-01-27 09:46:00,57.6,57.6,30.13,SSE,160,2.0,9.0,100,0.00,,,0.00,meteohub,2013-01-27 15:46:00,
2013-01-27 09:51:00,58.1,57.7,30.13,ESE,123,1.0,9.0,99,0.00,,,0.00,meteohub,2013-01-27 15:51:00,
2013-01-27 09:56:00,58.5,58.5,30.13,South,175,5.0,9.0,100,0.00,,,0.00,meteohub,2013-01-27 15:56:00,
2013-01-27 10:01:00,58.6,58.3,30.13,SSE,150,1.0,9.0,99,0.00,,,0.00,meteohub,2013-01-27 16:01:00,
2013-01-27 10:06:00,58.6,58.3,30.13,SE,135,3.0,9.0,99,0.00,,,0.00,meteohub,2013-01-27 16:06:00,
2013-01-27 10:11:00,59.2,59.2,30.13,South,189,2.0,8.0,100,0.00,,,0.00,meteohub,2013-01-27 16:11:00,
2013-01-27 10:16:00,59.5,59.5,30.13,ESE,113,7.0,8.0,100,0.00,,,0.00,meteohub,2013-01-27 16:16:00,
2013-01-27 10:21:00,59.7,59.7,30.13,South,170,4.0,8.0,100,0.00,,,0.00,meteohub,2013-01-27 16:21:00,
2013-01-27 10:26:00,60.3,60.3,30.13,SW,229,3.0,8.0,100,0.00,,,0.00,meteohub,2013-01-27 16:26:00,
2013-01-27 10:31:00,60.4,60.4,30.13,South,187,1.0,7.0,100,0.00,,,0.00,meteohub,2013-01-27 16:31:00,
2013-01-27 10:36:00,60.8,60.8,30.13,South,187,2.0,8.0,100,0.00,,,0.00,meteohub,2013-01-27 16:36:00,
2013-01-27 10:41:00,60.8,60.8,30.13,South,186,1.0,8.0,100,0.00,,,0.00,meteohub,2013-01-27 16:41:00,
2013-01-27 10:46:00,61.2,61.2,30.12,SSW,209,3.0,8.0,100,0.00,,,0.00,meteohub,2013-01-27 16:46:00,
2013-01-27 10:51:00,61.5,61.5,30.12,South,190,7.0,9.0,100,0.00,,,0.00,meteohub,2013-01-27 16:51:00,
2013-01-27 10:56:00,61.7,61.7,30.12,South,182,5.0,11.0,100,0.00,,,0.00,meteohub,2013-01-27 16:56:00,
2013-01-27 11:01:00,61.9,61.9,30.12,SSE,148,5.0,11.0,100,0.00,,,0.00,meteohub,2013-01-27 17:01:00,
2013-01-27 11:06:00,62.1,62.1,30.12,ESE,109,2.0,11.0,100,0.00,,,0.00,meteohub,2013-01-27 17:06:00,
2013-01-27 11:11:00,62.4,62.4,30.12,SSW,202,3.0,12.0,100,0.00,,,0.00,meteohub,2013-01-27 17:11:00,
2013-01-27 11:16:00,63.1,63.1,30.11,South,188,5.0,12.0,100,0.00,,,0.00,meteohub,2013-01-27 17:16:00,
2013-01-27 11:21:00,63.9,63.9,30.11,SE,146,3.0,12.0,100,0.00,,,0.00,meteohub,2013-01-27 17:21:00,
2013-01-27 11:26:00,64.4,64.4,30.10,South,180,3.0,10.0,100,0.00,,,0.00,meteohub,2013-01-27 17:26:00,
2013-01-27 11:31:00,64.9,64.9,30.10,South,178,6.0,10.0,100,0.00,,,0.00,meteohub,2013-01-27 17:31:00,
2013-01-27 11:36:00,65.7,64.4,30.10,South,175,5.0,12.0,96,0.00,,,0.00,meteohub,2013-01-27 17:36:00,
2013-01-27 11:42:00,66.4,64.2,30.09,South,172,4.0,12.0,93,0.00,,,0.00,meteohub,2013-01-27 17:42:00,
2013-01-27 11:47:00,66.9,63.5,30.09,South,172,3.0,12.0,89,0.00,,,0.00,meteohub,2013-01-27 17:47:00,
2013-01-27 11:52:00,67.5,63.5,30.09,SSW,195,2.0,12.0,87,0.00,,,0.00,meteohub,2013-01-27 17:52:00,
2013-01-27 11:57:00,67.8,63.1,30.09,SSE,163,5.0,12.0,85,0.00,,,0.00,meteohub,2013-01-27 17:57:00,
2013-01-27 12:02:00,68.4,63.7,30.09,SSW,195,2.0,12.0,85,0.00,,,0.00,meteohub,2013-01-27 18:02:00,
2013-01-27 12:07:00,69.1,63.7,30.08,SSE,163,5.0,15.0,83,0.00,,,0.00,meteohub,2013-01-27 18:07:00,
2013-01-27 12:12:00,69.3,63.5,30.08,SSE,159,10.0,15.0,82,0.00,,,0.00,meteohub,2013-01-27 18:12:00,
2013-01-27 12:17:00,69.8,64.0,30.08,SSE,149,1.0,15.0,82,0.00,,,0.00,meteohub,2013-01-27 18:17:00,
2013-01-27 12:22:00,70.3,63.9,30.07,South,173,3.0,16.0,80,0.00,,,0.00,meteohub,2013-01-27 18:22:00,
2013-01-27 12:27:00,70.5,64.0,30.06,South,169,2.0,16.0,80,0.00,,,0.00,meteohub,2013-01-27 18:27:00,
2013-01-27 12:32:00,70.3,63.5,30.06,SSW,194,8.0,16.0,79,0.00,,,0.00,meteohub,2013-01-27 18:32:00,
2013-01-27 12:37:00,70.2,63.7,30.06,SE,138,1.0,18.0,80,0.00,,,0.00,meteohub,2013-01-27 18:37:00,
2013-01-27 12:42:00,70.2,63.3,30.05,SSE,152,4.0,18.0,79,0.00,,,0.00,meteohub,2013-01-27 18:42:00,
2013-01-27 12:47:00,70.2,63.3,30.05,South,186,4.0,18.0,79,0.00,,,0.00,meteohub,2013-01-27 18:47:00,
2013-01-27 12:52:00,70.2,63.3,30.05,SSW,193,5.0,15.0,79,0.00,,,0.00,meteohub,2013-01-27 18:52:00,
2013-01-27 12:57:00,70.3,63.1,30.04,SSW,199,6.0,15.0,78,0.00,,,0.00,meteohub,2013-01-27 18:57:00,
2013-01-27 13:02:00,70.5,63.0,30.03,ESE,103,3.0,13.0,77,0.00,,,0.00,meteohub,2013-01-27 19:02:00,
2013-01-27 13:07:00,70.9,63.7,30.02,SSE,161,12.0,13.0,78,0.00,,,0.00,meteohub,2013-01-27 19:07:00,
2013-01-27 13:12:00,71.2,63.3,30.03,SSE,159,10.0,13.0,76,0.00,,,0.00,meteohub,2013-01-27 19:12:00,
2013-01-27 13:17:00,71.6,64.0,30.03,SE,146,10.0,12.0,77,0.00,,,0.00,meteohub,2013-01-27 19:17:00,
2013-01-27 13:22:00,72.0,64.0,30.03,SW,227,7.0,15.0,76,0.00,,,0.00,meteohub,2013-01-27 19:22:00,
2013-01-27 13:27:00,72.0,63.1,30.03,SSE,164,5.0,15.0,74,0.00,,,0.00,meteohub,2013-01-27 19:27:00,
2013-01-27 13:32:00,72.0,63.7,30.02,SE,136,8.0,15.0,75,0.00,,,0.00,meteohub,2013-01-27 19:32:00,
2013-01-27 13:37:00,72.3,63.9,30.02,SSE,151,4.0,15.0,75,0.00,,,0.00,meteohub,2013-01-27 19:37:00,
2013-01-27 13:42:00,72.9,63.7,30.02,WSW,256,3.0,14.0,73,0.00,,,0.00,meteohub,2013-01-27 19:42:00,
2013-01-27 13:47:00,72.7,63.5,30.02,SW,215,1.0,12.0,73,0.00,,,0.00,meteohub,2013-01-27 19:47:00,
2013-01-27 13:52:00,72.3,63.5,30.01,SE,142,3.0,12.0,74,0.00,,,0.00,meteohub,2013-01-27 19:52:00,
2013-01-27 13:57:00,72.3,63.5,30.01,SSW,192,2.0,12.0,74,0.00,,,0.00,meteohub,2013-01-27 19:57:00,
2013-01-27 14:02:00,72.3,63.9,30.01,South,179,6.0,11.0,75,0.00,,,0.00,meteohub,2013-01-27 20:02:00,
2013-01-27 14:07:00,72.5,63.3,30.01,ESE,109,5.0,12.0,73,0.00,,,0.00,meteohub,2013-01-27 20:07:00,
2013-01-27 14:13:00,72.7,63.5,30.00,South,179,8.0,12.0,73,0.00,,,0.00,meteohub,2013-01-27 20:13:00,
2013-01-27 14:18:00,73.0,63.1,30.00,East,93,9.0,12.0,71,0.00,,,0.00,meteohub,2013-01-27 20:18:00,
2013-01-27 14:23:00,73.9,63.9,29.99,West,270,4.0,15.0,71,0.00,,,0.00,meteohub,2013-01-27 20:23:00,
2013-01-27 14:28:00,74.8,63.5,29.99,South,170,2.0,15.0,68,0.00,,,0.00,meteohub,2013-01-27 20:28:00,
2013-01-27 14:33:00,75.2,63.5,29.99,SSE,167,4.0,15.0,67,0.00,,,0.00,meteohub,2013-01-27 20:33:00,
2013-01-27 14:38:00,74.8,62.8,29.99,ESE,119,5.0,11.0,66,0.00,,,0.00,meteohub,2013-01-27 20:38:00,
2013-01-27 14:43:00,75.0,62.4,29.98,SSW,201,5.0,13.0,65,0.00,,,0.00,meteohub,2013-01-27 20:43:00,
2013-01-27 14:48:00,75.0,62.4,29.98,SSE,164,4.0,13.0,65,0.00,,,0.00,meteohub,2013-01-27 20:48:00,
2013-01-27 14:53:00,75.4,62.4,29.98,SSW,205,7.0,15.0,64,0.00,,,0.00,meteohub,2013-01-27 20:53:00,
2013-01-27 14:58:00,75.4,62.4,29.98,South,190,7.0,15.0,64,0.00,,,0.00,meteohub,2013-01-27 20:58:00,
2013-01-27 15:03:00,75.4,61.9,29.98,SSE,148,5.0,15.0,63,0.00,,,0.00,meteohub,2013-01-27 21:03:00,
2013-01-27 15:08:00,74.8,61.9,29.98,ESE,109,8.0,13.0,64,0.00,,,0.00,meteohub,2013-01-27 21:08:00,
2013-01-27 15:13:00,74.8,62.2,29.98,SSW,203,13.0,15.0,65,0.00,,,0.00,meteohub,2013-01-27 21:13:00,
2013-01-27 15:18:00,75.0,62.4,29.98,SW,229,2.0,19.0,65,0.00,,,0.00,meteohub,2013-01-27 21:18:00,
2013-01-27 15:23:00,74.7,62.1,29.98,SSE,160,6.0,19.0,65,0.00,,,0.00,meteohub,2013-01-27 21:23:00,
2013-01-27 15:28:00,74.5,62.4,29.97,SW,221,6.0,19.0,66,0.00,,,0.00,meteohub,2013-01-27 21:28:00,
2013-01-27 15:33:00,73.9,61.9,29.98,SSE,157,4.0,18.0,66,0.00,,,0.00,meteohub,2013-01-27 21:33:00,
2013-01-27 15:38:00,73.8,62.1,29.98,SSE,166,0.0,15.0,67,0.00,,,0.00,meteohub,2013-01-27 21:38:00,
2013-01-27 15:43:00,73.9,62.2,29.98,SSE,161,5.0,12.0,67,0.00,,,0.00,meteohub,2013-01-27 21:43:00,
2013-01-27 15:48:00,74.5,62.8,29.98,South,175,4.0,12.0,67,0.00,,,0.00,meteohub,2013-01-27 21:48:00,
2013-01-27 15:53:00,75.0,62.4,29.97,SSE,166,6.0,12.0,65,0.00,,,0.00,meteohub,2013-01-27 21:53:00,
2013-01-27 15:58:00,74.8,62.2,29.97,South,180,3.0,13.0,65,0.00,,,0.00,meteohub,2013-01-27 21:58:00,
2013-01-27 16:03:00,74.7,62.6,29.97,SSE,167,5.0,13.0,66,0.00,,,0.00,meteohub,2013-01-27 22:03:00,
2013-01-27 16:08:00,74.5,62.4,29.97,South,177,3.0,13.0,66,0.00,,,0.00,meteohub,2013-01-27 22:08:00,
2013-01-27 16:13:00,74.3,62.2,29.97,SSW,193,4.0,11.0,66,0.00,,,0.00,meteohub,2013-01-27 22:13:00,
2013-01-27 16:18:00,74.1,62.4,29.97,South,173,6.0,10.0,67,0.00,,,0.00,meteohub,2013-01-27 22:18:00,
2013-01-27 16:23:00,73.9,62.2,29.97,WSW,240,5.0,10.0,67,0.00,,,0.00,meteohub,2013-01-27 22:23:00,
2013-01-27 16:28:00,73.9,62.2,29.96,SE,145,3.0,12.0,67,0.00,,,0.00,meteohub,2013-01-27 22:28:00,
2013-01-27 16:33:00,73.9,62.2,29.96,SSW,202,7.0,15.0,67,0.00,,,0.00,meteohub,2013-01-27 22:33:00,
2013-01-27 16:39:00,73.9,62.2,29.96,South,181,4.0,15.0,67,0.00,,,0.00,meteohub,2013-01-27 22:39:00,
2013-01-27 16:44:00,73.8,62.1,29.96,SE,128,5.0,16.0,67,0.00,,,0.00,meteohub,2013-01-27 22:44:00,
2013-01-27 16:49:00,73.4,62.2,29.96,South,184,6.0,16.0,68,0.00,,,0.00,meteohub,2013-01-27 22:49:00,
2013-01-27 16:54:00,73.2,62.1,29.97,SSW,194,7.0,17.0,68,0.00,,,0.00,meteohub,2013-01-27 22:54:00,
2013-01-27 16:59:00,73.0,62.2,29.96,South,173,6.0,17.0,69,0.00,,,0.00,meteohub,2013-01-27 22:59:00,
2013-01-27 17:04:00,72.9,62.1,29.96,ESE,108,5.0,17.0,69,0.00,,,0.00,meteohub,2013-01-27 23:04:00,
2013-01-27 17:09:00,72.7,61.9,29.97,South,175,1.0,12.0,69,0.00,,,0.00,meteohub,2013-01-27 23:09:00,
2013-01-27 17:14:00,72.5,62.2,29.97,South,191,5.0,11.0,70,0.00,,,0.00,meteohub,2013-01-27 23:14:00,
2013-01-27 17:19:00,72.3,62.1,29.96,SSE,159,2.0,11.0,70,0.00,,,0.00,meteohub,2013-01-27 23:19:00,
2013-01-27 17:24:00,72.1,61.9,29.97,South,175,1.0,10.0,70,0.00,,,0.00,meteohub,2013-01-27 23:24:00,
2013-01-27 17:29:00,71.8,61.9,29.97,ESE,117,3.0,10.0,71,0.00,,,0.00,meteohub,2013-01-27 23:29:00,
2013-01-27 17:34:00,71.8,62.2,29.96,South,183,3.0,10.0,72,0.00,,,0.00,meteohub,2013-01-27 23:34:00,
2013-01-27 17:39:00,71.4,61.9,29.96,SE,141,3.0,13.0,72,0.00,,,0.00,meteohub,2013-01-27 23:39:00,
2013-01-27 17:44:00,71.2,61.7,29.96,ESE,118,5.0,13.0,72,0.00,,,0.00,meteohub,2013-01-27 23:44:00,
2013-01-27 17:49:00,71.1,61.9,29.97,SE,144,2.0,13.0,73,0.00,,,0.00,meteohub,2013-01-27 23:49:00,
2013-01-27 17:54:00,70.9,61.9,29.97,SSE,148,7.0,13.0,73,0.00,,,0.00,meteohub,2013-01-27 23:54:00,
2013-01-27 17:59:00,70.5,61.9,29.97,SSE,161,8.0,11.0,74,0.00,,,0.00,meteohub,2013-01-27 23:59:00,
2013-01-27 18:04:00,70.3,62.1,29.97,ESE,114,5.0,8.0,75,0.00,,,0.00,meteohub,2013-01-28 00:04:00,
2013-01-27 18:09:00,70.2,61.9,29.97,South,169,2.0,8.0,75,0.00,,,0.00,meteohub,2013-01-28 00:09:00,
2013-01-27 18:14:00,70.0,61.7,29.97,SE,134,1.0,8.0,75,0.00,,,0.00,meteohub,2013-01-28 00:14:00,
2013-01-27 18:19:00,69.8,61.9,29.98,SE,144,5.0,8.0,76,0.00,,,0.00,meteohub,2013-01-28 00:19:00,
2013-01-27 18:24:00,69.6,61.7,29.98,ESE,114,4.0,7.0,76,0.00,,,0.00,meteohub,2013-01-28 00:24:00,
2013-01-27 18:29:00,69.4,61.5,29.98,SSE,166,4.0,12.0,76,0.00,,,0.00,meteohub,2013-01-28 00:29:00,
2013-01-27 18:34:00,69.4,61.9,29.98,SE,138,3.0,12.0,77,0.00,,,0.00,meteohub,2013-01-28 00:34:00,
2013-01-27 18:39:00,69.3,61.7,29.98,ESE,107,3.0,8.0,77,0.00,,,0.00,meteohub,2013-01-28 00:39:00,
2013-01-27 18:44:00,69.3,62.1,29.98,SE,135,4.0,9.0,78,0.00,,,0.00,meteohub,2013-01-28 00:44:00,
2013-01-27 18:49:00,69.1,61.9,29.98,SSE,163,5.0,9.0,78,0.00,,,0.00,meteohub,2013-01-28 00:49:00,
2013-01-27 18:54:00,69.1,61.9,29.98,SE,132,2.0,10.0,78,0.00,,,0.00,meteohub,2013-01-28 00:54:00,
2013-01-27 18:59:00,69.1,61.9,29.98,SE,126,4.0,10.0,78,0.00,,,0.00,meteohub,2013-01-28 00:59:00,
2013-01-27 19:04:00,69.1,61.9,29.98,SSE,156,3.0,8.0,78,0.00,,,0.00,meteohub,2013-01-28 01:04:00,
2013-01-27 19:09:00,68.9,61.7,29.98,ESE,122,3.0,10.0,78,0.00,,,0.00,meteohub,2013-01-28 01:09:00,
2013-01-27 19:14:00,68.7,61.9,29.98,SSW,200,3.0,10.0,79,0.00,,,0.00,meteohub,2013-01-28 01:14:00,
2013-01-27 19:20:00,68.5,61.7,29.98,SSE,149,1.0,10.0,79,0.00,,,0.00,meteohub,2013-01-28 01:20:00,
2013-01-27 19:25:00,68.4,61.5,29.98,South,174,1.0,8.0,79,0.00,,,0.00,meteohub,2013-01-28 01:25:00,
2013-01-27 19:30:00,68.2,61.7,29.98,ESE,121,3.0,7.0,80,0.00,,,0.00,meteohub,2013-01-28 01:30:00,
2013-01-27 19:35:00,68.2,61.7,29.98,SE,130,5.0,10.0,80,0.00,,,0.00,meteohub,2013-01-28 01:35:00,
2013-01-27 19:40:00,68.0,61.9,29.98,SE,144,2.0,10.0,81,0.00,,,0.00,meteohub,2013-01-28 01:40:00,
2013-01-27 19:45:00,67.8,61.7,29.98,SE,134,4.0,7.0,81,0.00,,,0.00,meteohub,2013-01-28 01:45:00,
2013-01-27 19:50:00,67.8,61.7,29.98,SSE,153,2.0,9.0,81,0.00,,,0.00,meteohub,2013-01-28 01:50:00,
2013-01-27 19:55:00,67.8,61.7,29.98,SSE,148,2.0,9.0,81,0.00,,,0.00,meteohub,2013-01-28 01:55:00,
2013-01-27 20:00:00,67.6,61.9,29.99,ESE,122,3.0,9.0,82,0.00,,,0.00,meteohub,2013-01-28 02:00:00,
2013-01-27 20:05:00,67.6,61.9,29.99,SSE,157,4.0,9.0,82,0.00,,,0.00,meteohub,2013-01-28 02:05:00,
2013-01-27 20:10:00,67.6,61.9,29.99,SE,142,5.0,9.0,82,0.00,,,0.00,meteohub,2013-01-28 02:10:00,
2013-01-27 20:15:00,67.8,62.1,29.98,SSW,193,2.0,8.0,82,0.00,,,0.00,meteohub,2013-01-28 02:15:00,
2013-01-27 20:20:00,67.8,62.1,29.99,South,180,4.0,8.0,82,0.00,,,0.00,meteohub,2013-01-28 02:20:00,
2013-01-27 20:25:00,67.8,62.4,29.98,SE,137,3.0,10.0,83,0.00,,,0.00,meteohub,2013-01-28 02:25:00,
2013-01-27 20:30:00,68.2,62.8,29.98,SE,137,6.0,12.0,83,0.00,,,0.00,meteohub,2013-01-28 02:30:00,
2013-01-27 20:35:00,68.2,62.8,29.98,South,172,1.0,12.0,83,0.00,,,0.00,meteohub,2013-01-28 02:35:00,
2013-01-27 20:40:00,68.4,63.0,29.98,SE,130,1.0,12.0,83,0.00,,,0.00,meteohub,2013-01-28 02:40:00,
2013-01-27 20:45:00,68.5,63.1,29.98,SSW,212,1.0,9.0,83,0.00,,,0.00,meteohub,2013-01-28 02:45:00,
2013-01-27 20:50:00,68.5,63.1,29.98,South,178,5.0,13.0,83,0.00,,,0.00,meteohub,2013-01-28 02:50:00,
2013-01-27 20:55:00,68.7,63.3,29.98,South,186,4.0,13.0,83,0.00,,,0.00,meteohub,2013-01-28 02:55:00,
2013-01-27 21:00:00,68.9,63.9,29.98,SSW,199,5.0,14.0,84,0.00,,,0.00,meteohub,2013-01-28 03:00:00,
2013-01-27 21:05:00,69.1,64.0,29.98,SSW,194,5.0,15.0,84,0.00,,,0.00,meteohub,2013-01-28 03:05:00,
2013-01-27 21:10:00,69.1,64.0,29.98,South,187,4.0,15.0,84,0.00,,,0.00,meteohub,2013-01-28 03:10:00,
2013-01-27 21:15:00,69.1,64.0,29.98,South,185,9.0,13.0,84,0.00,,,0.00,meteohub,2013-01-28 03:15:00,
2013-01-27 21:20:00,69.1,64.0,29.98,NE,38,3.0,13.0,84,0.00,,,0.00,meteohub,2013-01-28 03:20:00,
2013-01-27 21:25:00,69.1,64.0,29.98,South,178,3.0,13.0,84,0.00,,,0.00,meteohub,2013-01-28 03:25:00,
2013-01-27 21:30:00,69.1,64.0,29.98,South,180,4.0,13.0,84,0.00,,,0.00,meteohub,2013-01-28 03:30:00,
2013-01-27 21:35:00,69.1,64.0,29.98,South,188,8.0,13.0,84,0.00,,,0.00,meteohub,2013-01-28 03:35:00,
2013-01-27 21:40:00,68.9,63.9,29.98,South,186,7.0,13.0,84,0.00,,,0.00,meteohub,2013-01-28 03:40:00,
2013-01-27 21:45:00,68.7,64.0,29.98,South,184,2.0,12.0,85,0.00,,,0.00,meteohub,2013-01-28 03:45:00,
2013-01-27 21:50:00,68.7,64.0,29.98,SSE,150,5.0,12.0,85,0.00,,,0.00,meteohub,2013-01-28 03:50:00,
2013-01-27 21:55:00,68.7,64.0,29.98,SSE,168,4.0,12.0,85,0.00,,,0.00,meteohub,2013-01-28 03:55:00,
2013-01-27 22:00:00,68.7,64.0,29.98,South,176,11.0,13.0,85,0.00,,,0.00,meteohub,2013-01-28 04:00:00,
2013-01-27 22:05:00,68.7,64.0,29.98,East,101,5.0,13.0,85,0.00,,,0.00,meteohub,2013-01-28 04:05:00,
2013-01-27 22:10:00,68.7,64.0,29.98,SE,143,2.0,12.0,85,0.00,,,0.00,meteohub,2013-01-28 04:10:00,
2013-01-27 22:15:00,68.5,63.9,29.99,SE,134,2.0,12.0,85,0.00,,,0.00,meteohub,2013-01-28 04:15:00,
2013-01-27 22:20:00,68.5,64.2,29.99,SE,127,7.0,12.0,86,0.00,,,0.00,meteohub,2013-01-28 04:20:00,
2013-01-27 22:25:00,68.5,64.2,29.99,SSW,211,3.0,11.0,86,0.00,,,0.00,meteohub,2013-01-28 04:25:00,
2013-01-27 22:31:00,68.5,64.2,29.99,South,171,5.0,14.0,86,0.00,,,0.00,meteohub,2013-01-28 04:31:00,
2013-01-27 22:36:00,68.5,64.2,29.99,SW,216,5.0,14.0,86,0.00,,,0.00,meteohub,2013-01-28 04:36:00,
2013-01-27 22:41:00,68.5,64.2,29.99,South,186,2.0,14.0,86,0.00,,,0.00,meteohub,2013-01-28 04:41:00,
2013-01-27 22:46:00,68.5,64.2,29.99,SE,139,8.0,8.0,86,0.00,,,0.00,meteohub,2013-01-28 04:46:00,
2013-01-27 22:51:00,68.4,64.0,29.99,SSW,196,10.0,16.0,86,0.00,,,0.00,meteohub,2013-01-28 04:51:00,
2013-01-27 22:56:00,68.4,64.0,29.99,South,191,13.0,16.0,86,0.00,,,0.00,meteohub,2013-01-28 04:56:00,
2013-01-27 23:00:00,68.4,64.4,29.99,SSE,155,5.0,16.0,87,0.00,,,0.00,meteohub,2013-01-28 05:00:00,
2013-01-27 23:01:00,68.4,64.4,29.99,South,190,4.0,16.0,87,0.00,,,0.00,meteohub,2013-01-28 05:01:00,
2013-01-27 23:03:00,68.5,64.6,29.99,SE,140,7.0,16.0,87,0.00,,,0.00,meteohub,2013-01-28 05:03:00,
2013-01-27 23:08:00,68.4,64.4,30.00,SSE,161,6.0,14.0,87,0.00,,,0.00,meteohub,2013-01-28 05:08:00,
2013-01-27 23:12:00,68.4,64.4,30.00,South,175,3.0,13.0,87,0.00,,,0.00,meteohub,2013-01-28 05:12:00,
2013-01-27 23:17:00,68.4,64.4,30.00,SSE,156,6.0,11.0,87,0.00,,,0.00,meteohub,2013-01-28 05:17:00,
2013-01-27 23:22:00,68.4,64.4,30.00,South,175,6.0,11.0,87,0.00,,,0.00,meteohub,2013-01-28 05:22:00,
2013-01-27 23:27:00,68.4,64.4,30.00,South,185,3.0,11.0,87,0.00,,,0.00,meteohub,2013-01-28 05:27:00,
2013-01-27 23:32:00,68.4,64.4,30.01,SSW,192,2.0,11.0,87,0.00,,,0.00,meteohub,2013-01-28 05:32:00,
2013-01-27 23:37:00,68.2,64.2,30.01,South,173,3.0,11.0,87,0.00,,,0.00,meteohub,2013-01-28 05:37:00,
2013-01-27 23:42:00,68.2,64.4,30.01,SSW,192,2.0,11.0,88,0.00,,,0.00,meteohub,2013-01-28 05:42:00,
2013-01-27 23:47:00,68.2,64.4,30.01,SE,139,6.0,9.0,88,0.00,,,0.00,meteohub,2013-01-28 05:47:00,
2013-01-27 23:52:00,68.0,64.4,30.01,ENE,69,1.0,9.0,88,0.00,,,0.00,meteohub,2013-01-28 05:52:00,
2013-01-27 23:57:00,67.8,64.2,30.01,South,177,3.0,10.0,88,0.00,,,0.00,meteohub,2013-01-28 05:57:00,